QPF
0.00 0.00 0.00 0.00 0.00 0.00 0.00 0.00 0.00 0.00 0.00 0.00 0.00 0.00 0.00 0.01 0.01 0.00 0.00 0.00 0.01 0.02 0.04 0.03 0.03 0.04 0.05 0.03 0.02 0.01 0.01 0.01 0.02 0.02 0.03 0.05 0.10 0.14 0.13 0.05 0.01 0.00 0.00
0.00 0.00 0.00 0.00 0.00 0.00 0.00 0.00 0.00 0.01 0.01 0.01 0.01 0.01 0.01 0.00 0.00 0.00 0.00 0.00 0.00 0.00 0.01 0.02 0.03 0.04 0.04 0.03 0.03 0.02 0.01 0.01 0.01 0.02 0.03 0.04 0.08 0.12 0.12 0.08 0.02 0.01 0.01
0.00 0.00 0.00 0.00 0.00 0.00 0.00 0.00 0.00 0.00 0.02 0.02 0.01 0.01 0.01 0.00 0.00 0.00 0.00 0.00 0.00 0.00 0.00 0.01 0.02 0.03 0.03 0.03 0.03 0.02 0.01 0.01 0.01 0.02 0.02 0.04 0.07 0.10 0.11 0.09 0.04 0.01 0.01
0.01 0.01 0.01 0.01 0.01 0.00 0.00 0.00 0.00 0.00 0.01 0.02 0.01 0.00 0.00 0.00 0.00 0.00 0.00 0.00 0.00 0.00 0.00 0.01 0.02 0.03 0.04 0.04 0.03 0.02 0.02 0.02 0.01 0.01 0.01 0.02 0.05 0.09 0.11 0.11 0.06 0.02 0.02
0.03 0.02 0.02 0.01 0.02 0.01 0.01 0.00 0.00 0.01 0.01 0.02 0.03 0.01 0.00 0.00 0.00 0.00 0.01 0.00 0.00 0.00 0.00 0.00 0.01 0.02 0.04 0.05 0.04 0.04 0.03 0.03 0.02 0.02 0.01 0.01 0.03 0.08 0.12 0.12 0.07 0.03 0.02
0.05 0.02 0.01 0.01 0.01 0.01 0.01 0.01 0.01 0.02 0.02 0.04 0.05 0.01 0.00 0.00 0.00 0.00 0.00 0.00 0.00 0.00 0.00 0.00 0.00 0.01 0.03 0.05 0.05 0.05 0.04 0.04 0.02 0.02 0.02 0.01 0.03 0.07 0.12 0.12 0.08 0.04 0.03
0.05 0.04 0.02 0.02 0.01 0.00 0.00 0.01 0.02 0.02 0.02 0.06 0.06 0.02 0.00 0.00 0.00 0.00 0.00 0.00 0.01 0.01 0.01 0.01 0.00 0.00 0.01 0.02 0.03 0.04 0.04 0.04 0.03 0.02 0.02 0.02 0.02 0.05 0.08 0.11 0.09 0.06 0.05
0.07 0.05 0.03 0.01 0.00 0.00 0.00 0.01 0.02 0.02 0.01 0.05 0.08 0.06 0.01 0.00 0.00 0.00 0.00 0.00 0.01 0.01 0.02 0.02 0.02 0.01 0.02 0.01 0.01 0.01 0.02 0.03 0.04 0.04 0.03 0.02 0.01 0.03 0.06 0.10 0.10 0.10 0.10
0.07 0.04 0.02 0.00 0.00 0.00 0.00 0.00 0.01 0.02 0.02 0.03 0.09 0.12 0.05 0.01 0.00 0.00 0.00 0.00 0.00 0.01 0.02 0.03 0.04 0.04 0.04 0.02 0.01 0.00 0.00 0.00 0.02 0.04 0.04 0.02 0.01 0.01 0.04 0.09 0.13 0.14 0.14
0.04 0.02 0.00 0.00 0.00 0.00 0.00 0.00 0.00 0.02 0.03 0.02 0.06 0.11 0.13 0.08 0.05 0.02 0.02 0.02 0.01 0.01 0.01 0.02 0.04 0.04 0.04 0.02 0.01 0.01 0.00 0.00 0.00 0.01 0.02 0.01 0.01 0.01 0.02 0.09 0.17 0.17 0.14
0.02 0.00 0.00 0.00 0.00 0.00 0.00 0.00 0.01 0.02 0.04 0.05 0.06 0.09 0.13 0.15 0.14 0.11 0.07 0.07 0.05 0.03 0.02 0.02 0.02 0.02 0.02 0.02 0.01 0.01 0.01 0.00 0.00 0.00 0.00 0.00 0.00 0.01 0.02 0.08 0.19 0.24 0.19
0.00 0.00 0.00 0.00 0.00 0.00 0.00 0.00 0.01 0.02 0.04 0.06 0.09 0.11 0.13 0.15 0.16 0.17 0.12 0.09 0.07 0.04 0.02 0.01 0.01 0.01 0.02 0.02 0.02 0.03 0.02 0.01 0.00 0.00 0.00 0.00 0.00 0.00 0.02 0.07 0.16 0.24 0.24
0.00 0.00 0.00 0.00 0.00 0.00 0.00 0.00 0.01 0.02 0.04 0.06 0.09 0.12 0.15 0.17 0.16 0.15 0.13 0.09 0.07 0.05 0.03 0.02 0.01 0.01 0.02 0.03 0.03 0.03 0.01 0.01 0.00 0.00 0.00 0.00 0.00 0.00 0.01 0.05 0.13 0.21 0.25
0.00 0.00 0.00 0.00 0.00 0.00 0.00 0.00 0.01 0.02 0.03 0.05 0.07 0.11 0.13 0.14 0.15 0.13 0.12 0.11 0.08 0.06 0.04 0.03 0.02 0.01 0.02 0.02 0.02 0.02 0.01 0.00 0.00 0.00 0.00 0.00 0.00 0.00 0.01 0.03 0.10 0.19 0.22
0.00 0.00 0.00 0.00 0.00 0.00 0.00 0.00 0.00 0.01 0.03 0.06 0.09 0.12 0.14 0.15 0.14 0.14 0.14 0.15 0.14 0.11 0.07 0.04 0.02 0.02 0.02 0.02 0.03 0.02 0.01 0.00 0.00 0.00 0.00 0.00 0.00 0.01 0.01 0.03 0.08 0.14 0.17
0.00 0.00 0.00 0.00 0.00 0.00 0.00 0.00 0.00 0.01 0.03 0.05 0.08 0.11 0.14 0.16 0.16 0.16 0.17 0.18 0.18 0.15 0.09 0.04 0.02 0.02 0.02 0.02 0.04 0.03 0.02 0.01 0.00 0.00 0.00 0.00 0.00 0.01 0.02 0.04 0.06 0.10 0.12
0.00 0.00 0.00 0.00 0.00 0.00 0.00 0.00 0.00 0.00 0.01 0.02 0.03 0.05 0.07 0.08 0.09 0.10 0.11 0.12 0.13 0.11 0.08 0.04 0.03 0.02 0.01 0.03 0.05 0.06 0.04 0.03 0.02 0.01 0.00 0.00 0.01 0.02 0.05 0.06 0.07 0.08 0.08
0.00 0.00 0.00 0.00 0.00 0.00 0.00 0.00 0.00 0.00 0.01 0.01 0.03 0.04 0.03 0.04 0.04 0.04 0.05 0.06 0.06 0.06 0.06 0.04 0.02 0.02 0.01 0.03 0.06 0.09 0.08 0.05 0.03 0.01 0.01 0.01 0.01 0.03 0.07 0.08 0.07 0.05 0.04
0.00 0.00 0.00 0.00 0.00 0.00 0.00 0.00 0.00 0.00 0.00 0.00 0.00 0.00 0.01 0.01 0.01 0.02 0.02 0.02 0.02 0.03 0.03 0.03 0.03 0.02 0.02 0.03 0.08 0.09 0.09 0.07 0.04 0.02 0.01 0.01 0.03 0.03 0.05 0.08 0.06 0.03 0.02
0.00 0.00 0.00 0.00 0.00 0.00 0.00 0.00 0.00 0.00 0.00 0.00 0.00 0.00 0.00 0.00 0.00 0.00 0.00 0.00 0.00 0.01 0.02 0.02 0.02 0.02 0.02 0.04 0.09 0.12 0.13 0.10 0.08 0.04 0.01 0.01 0.02 0.03 0.03 0.05 0.04 0.02 0.01
0.00 0.00 0.00 0.00 0.00 0.00 0.00 0.00 0.00 0.00 0.00 0.00 0.00 0.00 0.00 0.00 0.00 0.00 0.00 0.00 0.00 0.00 0.00 0.01 0.01 0.02 0.02 0.04 0.07 0.13 0.16 0.15 0.12 0.07 0.03 0.01 0.01 0.01 0.01 0.02 0.02 0.02 0.01
0.00 0.00 0.00 0.00 0.00 0.00 0.00 0.00 0.00 0.00 0.00 0.00 0.00 0.00 0.00 0.00 0.00 0.00 0.00 0.00 0.00 0.00 0.00 0.00 0.00 0.01 0.01 0.01 0.03 0.10 0.18 0.17 0.16 0.11 0.05 0.02 0.01 0.00 0.00 0.00 0.00 0.00 0.00
0.00 0.00 0.00 0.00 0.00 0.00 0.00 0.00 0.00 0.00 0.00 0.00 0.00 0.00 0.00 0.00 0.00 0.00 0.00 0.00 0.00 0.00 0.00 0.00 0.00 0.00 0.00 0.01 0.02 0.07 0.16 0.23 0.25 0.23 0.18 0.10 0.05 0.03 0.02 0.01 0.01 0.01 0.01
0.00 0.00 0.00 0.00 0.00 0.00 0.00 0.00 0.00 0.00 0.00 0.00 0.00 0.00 0.00 0.00 0.00 0.00 0.00 0.00 0.00 0.00 0.00 0.00 0.00 0.00 0.00 0.00 0.02 0.04 0.10 0.22 0.31 0.33 0.29 0.24 0.16 0.09 0.06 0.04 0.04 0.03 0.02
0.00 0.00 0.00 0.00 0.00 0.00 0.00 0.00 0.00 0.00 0.00 0.00 0.00 0.00 0.00 0.00 0.00 0.00 0.00 0.00 0.00 0.00 0.00 0.00 0.00 0.00 0.00 0.00 0.01 0.02 0.04 0.08 0.16 0.28 0.33 0.32 0.26 0.16 0.09 0.06 0.05 0.04 0.03
0.00 0.00 0.00 0.00 0.00 0.00 0.00 0.00 0.00 0.00 0.00 0.00 0.00 0.00 0.00 0.00 0.00 0.00 0.00 0.00 0.00 0.00 0.00 0.00 0.00 0.00 0.00 0.00 0.00 0.00 0.01 0.02 0.04 0.06 0.11 0.14 0.15 0.15 0.12 0.09 0.06 0.05 0.04
MSLP
1015.66 1015.66 1015.58 1015.45 1015.32 1015.20 1015.12 1015.10 1015.11 1015.15 1015.17 1015.17 1015.11 1015.01 1014.86 1014.69 1014.50 1014.32 1014.15 1014.02 1013.91 1013.83 1013.78 1013.77 1013.79 1013.85 1013.96 1014.11 1014.28 1014.47 1014.66 1014.83 1014.98 1015.10 1015.23 1015.36 1015.52 1015.74 1016.00 1016.33 1016.71 1017.11 1017.52
1015.43 1015.39 1015.29 1015.15 1015.01 1014.89 1014.82 1014.81 1014.85 1014.90 1014.96 1014.97 1014.93 1014.83 1014.66 1014.45 1014.21 1013.98 1013.76 1013.58 1013.45 1013.36 1013.32 1013.33 1013.38 1013.48 1013.61 1013.77 1013.94 1014.11 1014.27 1014.41 1014.53 1014.63 1014.73 1014.85 1015.00 1015.20 1015.46 1015.79 1016.18 1016.61 1017.06
1015.10 1015.06 1014.96 1014.82 1014.69 1014.59 1014.55 1014.56 1014.61 1014.69 1014.76 1014.79 1014.75 1014.64 1014.45 1014.20 1013.92 1013.64 1013.38 1013.16 1012.99 1012.89 1012.85 1012.88 1012.95 1013.07 1013.21 1013.37 1013.54 1013.70 1013.84 1013.96 1014.06 1014.14 1014.22 1014.32 1014.45 1014.64 1014.89 1015.21 1015.61 1016.07 1016.56
1014.70 1014.67 1014.59 1014.48 1014.39 1014.32 1014.30 1014.33 1014.40 1014.48 1014.55 1014.57 1014.52 1014.38 1014.17 1013.90 1013.58 1013.26 1012.96 1012.71 1012.53 1012.41 1012.37 1012.39 1012.47 1012.59 1012.74 1012.90 1013.06 1013.21 1013.35 1013.46 1013.54 1013.62 1013.69 1013.77 1013.89 1014.06 1014.30 1014.62 1015.02 1015.50 1016.03
1014.26 1014.25 1014.21 1014.15 1014.10 1014.07 1014.08 1014.12 1014.18 1014.25 1014.29 1014.28 1014.20 1014.04 1013.80 1013.51 1013.17 1012.84 1012.52 1012.25 1012.05 1011.92 1011.87 1011.88 1011.95 1012.06 1012.20 1012.35 1012.51 1012.65 1012.79 1012.90 1012.99 1013.06 1013.14 1013.21 1013.32 1013.48 1013.70 1014.01 1014.41 1014.90 1015.46
1013.82 1013.85 1013.85 1013.84 1013.84 1013.84 1013.87 1013.90 1013.94 1013.97 1013.97 1013.91 1013.79 1013.60 1013.35 1013.04 1012.71 1012.38 1012.07 1011.81 1011.60 1011.46 1011.38 1011.37 1011.41 1011.49 1011.61 1011.74 1011.89 1012.03 1012.17 1012.30 1012.40 1012.49 1012.56 1012.64 1012.74 1012.88 1013.09 1013.38 1013.77 1014.27 1014.85
1013.46 1013.51 1013.55 1013.58 1013.61 1013.64 1013.67 1013.68 1013.68 1013.66 1013.59 1013.48 1013.32 1013.11 1012.85 1012.56 1012.25 1011.95 1011.66 1011.41 1011.21 1011.06 1010.95 1010.90 1010.90 1010.94 1011.01 1011.12 1011.25 1011.39 1011.53 1011.67 1011.79 1011.89 1011.98 1012.05 1012.14 1012.26 1012.45 1012.72 1013.11 1013.61 1014.21
1013.20 1013.27 1013.33 1013.39 1013.44 1013.47 1013.48 1013.47 1013.42 1013.33 1013.21 1013.04 1012.85 1012.62 1012.38 1012.12 1011.85 1011.60 1011.35 1011.13 1010.93 1010.76 1010.63 1010.53 1010.46 1010.44 1010.46 1010.53 1010.63 1010.76 1010.91 1011.05 1011.19 1011.29 1011.38 1011.45 1011.52 1011.61 1011.78 1012.03 1012.41 1012.91 1013.54
1013.07 1013.13 1013.19 1013.25 1013.30 1013.33 1013.31 1013.26 1013.15 1013.01 1012.84 1012.64 1012.42 1012.21 1011.99 1011.78 1011.58 1011.38 1011.18 1010.99 1010.80 1010.61 1010.43 1010.27 1010.13 1010.04 1010.00 1010.01 1010.07 1010.18 1010.32 1010.47 1010.60 1010.70 1010.78 1010.82 1010.87 1010.94 1011.07 1011.31 1011.68 1012.19 1012.84
1013.06 1013.09 1013.13 1013.18 1013.20 1013.20 1013.15 1013.05 1012.91 1012.73 1012.52 1012.30 1012.09 1011.90 1011.73 1011.58 1011.44 1011.30 1011.16 1010.99 1010.80 1010.58 1010.35 1010.12 1009.91 1009.74 1009.62 1009.58 1009.60 1009.67 1009.79 1009.92 1010.04 1010.13 1010.18 1010.20 1010.21 1010.24 1010.35 1010.57 1010.93 1011.46 1012.15
1013.11 1013.11 1013.12 1013.13 1013.12 1013.08 1012.99 1012.86 1012.69 1012.48 1012.26 1012.05 1011.86 1011.71 1011.59 1011.51 1011.43 1011.35 1011.25 1011.09 1010.89 1010.64 1010.36 1010.05 1009.77 1009.52 1009.33 1009.23 1009.20 1009.24 1009.33 1009.43 1009.53 1009.58 1009.60 1009.58 1009.55 1009.55 1009.63 1009.84 1010.21 1010.76 1011.48
1013.19 1013.15 1013.11 1013.08 1013.03 1012.95 1012.83 1012.67 1012.48 1012.27 1012.06 1011.87 1011.72 1011.62 1011.56 1011.53 1011.51 1011.47 1011.39 1011.24 1011.02 1010.73 1010.39 1010.03 1009.67 1009.35 1009.11 1008.95 1008.88 1008.88 1008.93 1009.01 1009.06 1009.09 1009.06 1009.00 1008.94 1008.91 1008.97 1009.17 1009.55 1010.12 1010.88
1013.24 1013.16 1013.09 1013.01 1012.92 1012.81 1012.67 1012.50 1012.30 1012.10 1011.91 1011.75 1011.65 1011.59 1011.58 1011.59 1011.61 1011.59 1011.51 1011.36 1011.12 1010.79 1010.40 1009.99 1009.58 1009.21 1008.92 1008.72 1008.62 1008.59 1008.61 1008.65 1008.67 1008.66 1008.60 1008.51 1008.42 1008.38 1008.43 1008.63 1009.02 1009.61 1010.40
1013.24 1013.14 1013.04 1012.93 1012.81 1012.68 1012.52 1012.34 1012.16 1011.97 1011.81 1011.69 1011.62 1011.60 1011.62 1011.66 1011.69 1011.68 1011.59 1011.42 1011.15 1010.79 1010.37 1009.92 1009.47 1009.08 1008.76 1008.54 1008.41 1008.36 1008.36 1008.37 1008.37 1008.33 1008.25 1008.14 1008.04 1008.00 1008.06 1008.27 1008.68 1009.29 1010.09
1013.19 1013.08 1012.97 1012.85 1012.71 1012.57 1012.41 1012.24 1012.07 1011.91 1011.78 1011.69 1011.65 1011.65 1011.68 1011.72 1011.74 1011.71 1011.60 1011.40 1011.11 1010.73 1010.29 1009.82 1009.37 1008.97 1008.64 1008.41 1008.27 1008.21 1008.19 1008.19 1008.17 1008.12 1008.04 1007.93 1007.84 1007.81 1007.89 1008.13 1008.56 1009.18 1009.98
1013.11 1013.02 1012.92 1012.80 1012.67 1012.53 1012.39 1012.24 1012.09 1011.96 1011.85 1011.78 1011.74 1011.74 1011.77 1011.79 1011.78 1011.72 1011.58 1011.35 1011.04 1010.64 1010.20 1009.74 1009.29 1008.90 1008.58 1008.36 1008.21 1008.14 1008.12 1008.10 1008.08 1008.04 1007.96 1007.88 1007.83 1007.83 1007.95 1008.22 1008.66 1009.28 1010.07
1013.04 1012.99 1012.91 1012.82 1012.72 1012.61 1012.49 1012.37 1012.24 1012.13 1012.04 1011.98 1011.94 1011.92 1011.92 1011.90 1011.85 1011.75 1011.58 1011.33 1010.99 1010.60 1010.16 1009.71 1009.28 1008.91 1008.61 1008.39 1008.25 1008.17 1008.14 1008.12 1008.11 1008.07 1008.03 1007.99 1007.98 1008.04 1008.20 1008.50 1008.96 1009.57 1010.32
1013.03 1013.02 1012.99 1012.95 1012.89 1012.82 1012.73 1012.64 1012.55 1012.46 1012.38 1012.31 1012.26 1012.21 1012.17 1012.10 1012.01 1011.86 1011.65 1011.37 1011.03 1010.64 1010.22 1009.79 1009.39 1009.03 1008.74 1008.53 1008.38 1008.29 1008.25 1008.23 1008.21 1008.20 1008.19 1008.19 1008.24 1008.35 1008.56 1008.90 1009.37 1009.97 1010.67
1013.09 1013.14 1013.17 1013.18 1013.17 1013.15 1013.11 1013.06 1013.00 1012.93 1012.85 1012.78 1012.70 1012.62 1012.53 1012.41 1012.27 1012.08 1011.83 1011.54 1011.19 1010.80 1010.40 1009.99 1009.61 1009.27 1008.98 1008.76 1008.60 1008.49 1008.43 1008.39 1008.38 1008.37 1008.39 1008.44 1008.53 1008.70 1008.96 1009.32 1009.79 1010.36 1011.01
1013.23 1013.34 1013.43 1013.50 1013.55 1013.58 1013.59 1013.58 1013.55 1013.50 1013.42 1013.34 1013.24 1013.12 1012.98 1012.82 1012.62 1012.39 1012.12 1011.81 1011.46 1011.08 1010.69 1010.30 1009.93 1009.60 1009.31 1009.07 1008.88 1008.74 1008.64 1008.58 1008.55 1008.55 1008.59 1008.67 1008.80 1009.00 1009.29 1009.66 1010.12 1010.66 1011.25
1013.44 1013.61 1013.75 1013.88 1013.99 1014.07 1014.13 1014.15 1014.15 1014.11 1014.04 1013.94 1013.81 1013.66 1013.48 1013.28 1013.04 1012.78 1012.48 1012.16 1011.81 1011.44 1011.07 1010.69 1010.33 1009.99 1009.69 1009.42 1009.20 1009.01 1008.87 1008.78 1008.72 1008.71 1008.74 1008.84 1008.99 1009.21 1009.50 1009.87 1010.30 1010.79 1011.32
1013.71 1013.91 1014.10 1014.28 1014.43 1014.56 1014.65 1014.71 1014.72 1014.70 1014.62 1014.51 1014.37 1014.19 1013.98 1013.74 1013.47 1013.18 1012.87 1012.54 1012.19 1011.83 1011.47 1011.10 1010.74 1010.40 1010.08 1009.78 1009.52 1009.29 1009.10 1008.96 1008.87 1008.83 1008.85 1008.93 1009.08 1009.29 1009.56 1009.90 1010.29 1010.72 1011.18
1013.99 1014.23 1014.46 1014.67 1014.85 1015.01 1015.13 1015.20 1015.23 1015.21 1015.13 1015.01 1014.85 1014.65 1014.41 1014.15 1013.86 1013.55 1013.23 1012.90 1012.56 1012.21 1011.86 1011.50 1011.14 1010.79 1010.45 1010.13 1009.83 1009.56 1009.33 1009.14 1009.01 1008.93 1008.92 1008.97 1009.09 1009.27 1009.51 1009.80 1010.13 1010.48 1010.86
1014.28 1014.54 1014.79 1015.02 1015.22 1015.39 1015.52 1015.60 1015.63 1015.61 1015.53 1015.41 1015.23 1015.02 1014.77 1014.49 1014.19 1013.87 1013.54 1013.21 1012.88 1012.54 1012.20 1011.86 1011.51 1011.16 1010.81 1010.47 1010.14 1009.83 1009.56 1009.34 1009.16 1009.05 1009.00 1009.01 1009.09 1009.22 1009.40 1009.62 1009.87 1010.15 1010.44
1014.55 1014.83 1015.08 1015.32 1015.53 1015.70 1015.82 1015.90 1015.93 1015.91 1015.83 1015.70 1015.52 1015.30 1015.04 1014.76 1014.45 1014.13 1013.81 1013.49 1013.16 1012.84 1012.51 1012.18 1011.84 1011.50 1011.15 1010.80 1010.46 1010.14 1009.84 1009.58 1009.37 1009.22 1009.13 1009.10 1009.12 1009.20 1009.31 1009.46 1009.63 1009.82 1010.01
1014.80 1015.09 1015.35 1015.58 1015.78 1015.94 1016.06 1016.13 1016.15 1016.13 1016.05 1015.92 1015.74 1015.52 1015.27 1014.99 1014.69 1014.38 1014.06 1013.75 1013.43 1013.13 1012.82 1012.50 1012.18 1011.85 1011.52 1011.17 1010.83 1010.49 1010.18 1009.90 1009.67 1009.48 1009.35 1009.28 1009.25 1009.27 1009.32 1009.39 1009.48 1009.58 1009.69
Thickness
5765 5764 5763 5763 5762 5762 5761 5760 5759 5758 5756 5754 5752 5751 5751 5751 5751 5752 5753 5754 5754 5755 5755 5755 5754 5753 5751 5749 5747 5745 5742 5740 5738 5736 5734 5732 5730 5727 5725 5721 5717 5714 5710
5764 5763 5762 5761 5761 5761 5760 5759 5758 5756 5754 5753 5752 5751 5750 5750 5750 5750 5752 5753 5753 5754 5754 5754 5753 5752 5750 5749 5747 5745 5743 5741 5739 5737 5735 5733 5731 5729 5726 5722 5718 5714 5710
5763 5762 5760 5759 5760 5759 5758 5757 5756 5754 5752 5751 5750 5750 5749 5749 5749 5749 5750 5751 5751 5752 5753 5753 5752 5751 5749 5748 5747 5746 5744 5742 5740 5738 5736 5734 5732 5730 5727 5724 5720 5715 5711
5761 5759 5758 5757 5758 5756 5755 5753 5752 5750 5749 5748 5747 5748 5747 5747 5747 5748 5748 5749 5749 5750 5751 5751 5751 5750 5749 5747 5746 5745 5744 5742 5740 5738 5737 5735 5733 5731 5729 5726 5721 5716 5711
5758 5757 5755 5755 5754 5753 5751 5749 5748 5746 5745 5744 5745 5745 5745 5745 5746 5747 5747 5747 5748 5748 5748 5749 5749 5748 5747 5746 5745 5744 5743 5742 5740 5739 5737 5735 5734 5732 5730 5727 5723 5717 5712
5754 5753 5751 5750 5749 5747 5745 5744 5742 5742 5741 5740 5740 5742 5742 5743 5744 5744 5745 5746 5746 5746 5746 5747 5746 5746 5746 5745 5744 5743 5742 5742 5740 5739 5737 5736 5734 5732 5730 5728 5724 5719 5712
5747 5746 5745 5744 5743 5741 5740 5738 5736 5736 5736 5734 5732 5734 5739 5740 5741 5742 5743 5743 5744 5744 5744 5743 5743 5743 5743 5743 5743 5742 5742 5741 5740 5739 5737 5736 5734 5733 5731 5728 5725 5720 5714
5738 5738 5737 5736 5736 5735 5734 5732 5730 5730 5731 5728 5724 5723 5725 5730 5734 5738 5739 5740 5740 5740 5740 5740 5740 5740 5740 5740 5741 5741 5740 5739 5738 5738 5737 5736 5734 5733 5731 5728 5726 5721 5714
5729 5728 5729 5730 5729 5729 5728 5727 5725 5723 5724 5724 5720 5715 5714 5717 5721 5728 5731 5733 5734 5734 5735 5735 5736 5736 5736 5737 5738 5738 5739 5738 5737 5736 5736 5735 5734 5732 5730 5728 5726 5721 5715
5719 5719 5721 5722 5722 5722 5721 5720 5721 5719 5718 5718 5716 5714 5713 5714 5710 5712 5719 5723 5726 5727 5728 5729 5731 5732 5732 5733 5734 5735 5736 5736 5735 5734 5734 5733 5732 5731 5730 5728 5726 5722 5715
5711 5712 5713 5714 5714 5714 5713 5713 5713 5713 5712 5711 5710 5708 5707 5706 5705 5702 5704 5710 5714 5719 5722 5723 5724 5726 5727 5728 5729 5731 5732 5732 5731 5731 5731 5731 5730 5730 5729 5728 5726 5722 5716
5703 5704 5705 5705 5705 5706 5705 5705 5705 5705 5705 5704 5703 5701 5700 5698 5698 5696 5696 5699 5701 5707 5712 5716 5717 5719 5720 5722 5724 5725 5726 5726 5726 5726 5726 5727 5728 5729 5728 5727 5725 5722 5715
5694 5695 5695 5696 5697 5697 5697 5696 5696 5696 5696 5695 5695 5694 5693 5693 5692 5691 5690 5691 5692 5696 5701 5706 5709 5711 5713 5715 5716 5718 5719 5719 5719 5720 5721 5723 5725 5727 5727 5726 5724 5721 5714
5686 5686 5686 5687 5688 5688 5688 5687 5686 5687 5687 5687 5686 5686 5685 5684 5684 5684 5683 5682 5682 5684 5689 5693 5700 5703 5705 5707 5708 5709 5710 5711 5712 5713 5715 5718 5721 5724 5724 5723 5722 5719 5711
5678 5678 5677 5678 5678 5679 5679 5678 5677 5678 5678 5678 5678 5677 5676 5676 5675 5675 5675 5674 5671 5672 5675 5682 5687 5694 5696 5698 5700 5701 5701 5703 5704 5706 5708 5712 5715 5718 5719 5718 5717 5713 5705
5669 5669 5669 5669 5670 5670 5670 5670 5670 5670 5670 5670 5670 5669 5668 5667 5667 5666 5666 5665 5664 5663 5664 5670 5676 5682 5687 5690 5692 5692 5693 5693 5695 5697 5700 5703 5707 5710 5711 5710 5708 5704 5697
5661 5661 5660 5661 5661 5660 5660 5660 5661 5662 5661 5661 5661 5661 5660 5660 5658 5657 5657 5657 5656 5656 5655 5661 5667 5673 5678 5681 5683 5684 5683 5684 5685 5687 5690 5693 5696 5699 5701 5700 5698 5694 5688
5652 5651 5651 5651 5650 5649 5649 5650 5650 5651 5650 5650 5650 5650 5650 5650 5649 5648 5648 5648 5648 5648 5649 5652 5658 5663 5668 5671 5674 5674 5674 5675 5676 5677 5680 5682 5685 5688 5689 5689 5687 5683 5679
5641 5640 5640 5639 5638 5638 5638 5638 5638 5638 5637 5637 5637 5638 5638 5639 5639 5639 5640 5641 5641 5642 5644 5646 5649 5652 5657 5660 5663 5665 5666 5668 5668 5669 5670 5672 5674 5676 5677 5677 5676 5673 5670
5630 5628 5628 5627 5626 5626 5626 5626 5626 5625 5624 5624 5624 5625 5627 5629 5629 5630 5632 5633 5634 5636 5638 5640 5642 5643 5646 5651 5653 5655 5658 5659 5661 5662 5662 5663 5664 5666 5666 5666 5666 5664 5661
5619 5617 5616 5615 5615 5615 5615 5614 5613 5612 5611 5612 5612 5613 5615 5618 5619 5620 5622 5623 5625 5627 5629 5632 5634 5636 5638 5642 5644 5648 5651 5653 5654 5655 5654 5655 5656 5657 5656 5656 5655 5654 5653
5607 5606 5604 5603 5603 5603 5603 5602 5601 5599 5598 5599 5599 5601 5604 5605 5607 5609 5611 5613 5615 5616 5618 5620 5623 5625 5627 5631 5635 5639 5643 5646 5647 5649 5649 5649 5649 5650 5650 5650 5649 5648 5646
5596 5594 5593 5592 5592 5591 5591 5591 5590 5588 5586 5585 5586 5588 5591 5592 5594 5597 5600 5603 5604 5605 5607 5608 5610 5612 5615 5619 5624 5631 5636 5638 5641 5643 5644 5643 5644 5644 5645 5644 5644 5643 5642
5586 5584 5583 5583 5582 5581 5580 5579 5579 5578 5576 5575 5574 5575 5577 5579 5581 5584 5588 5591 5592 5594 5595 5597 5598 5600 5603 5609 5614 5619 5624 5629 5632 5634 5637 5637 5637 5638 5639 5639 5639 5639 5638
5577 5575 5575 5574 5574 5572 5571 5571 5570 5569 5567 5565 5565 5565 5567 5568 5569 5573 5576 5577 5580 5581 5583 5584 5586 5588 5592 5597 5602 5609 5613 5617 5619 5622 5624 5627 5627 5629 5631 5633 5633 5634 5634
5570 5569 5567 5566 5565 5564 5563 5563 5562 5560 5557 5556 5556 5556 5556 5557 5558 5560 5562 5564 5565 5566 5568 5573 5575 5577 5580 5583 5587 5591 5595 5600 5603 5607 5610 5613 5615 5618 5620 5623 5625 5626 5627